Weather History for Meriden, CT

Change the Weather History Date:

Friday, August 2, 2013

  Actual Average (KHVN) Record (KHVN)
Temperature  
Mean Temperature 74 °F -  
Max Temperature 82 °F 78 °F 100 °F (1975)
Min Temperature 66 °F 63 °F 37 °F (1996)
Cooling Degree Days 9    
Growing Degree Days 24 (Base 50)    
Moisture  
Dew Point 64 °F    
Average Humidity 83    
Maximum Humidity 100    
Minimum Humidity 44    
Precipitation  
Precipitation 0.07 in - - ()
Sea Level Pressure  
Sea Level Pressure 29.83 in    
Wind  
Wind Speed 3 mph (NW)    
Max Wind Speed 8 mph    
Max Gust Speed 21 mph    
Visibility 8 miles    
Events Rain    
Averages and records for this station are not official NWS values.
T = Trace of Precipitation, MM = Missing Value Source: NWS Daily Summary

Daily Weather History Graph

Daily Weather History Graph

Search for Another Location

Airport:

Trip Planner

Search our weather history database for the weather conditions in past years. The results will help you decide how hot, cold, wet, or windy it might be!

Date:

Astronomy

Aug. 02, 2013 Rise Set
Actual Time 5:47 AM EDT 8:07 PM EDT
Civil Twilight 5:16 AM EDT 8:38 PM EDT
Nautical Twilight 4:37 AM EDT 9:16 PM EDT
Astronomical Twilight 3:54 AM EDT 9:58 PM EDT
Moon 2:05 AM EDT (8/2) 5:03 PM EDT (8/2)
Length of Visible Light 15h 22m
Length of Day
14h 20m
Waning Crescent, 16% of the Moon is Illuminated
Aug 2
Waning Crescent
Aug 6
New
Aug 14
First Quarter
Aug 20
Full
Aug 28
Last Quarter

Hourly Weather History & Observations

Time (EDT) Temp. Heat Index Dew Point Humidity Pressure Visibility Wind Dir Wind Speed Gust Speed Precip Events Conditions
12:05 AM 66.2 °F - 64.4 °F 94% 29.85 in 2.5 mi SE 3.5 mph - 0.03 in Rain Light Rain
12:09 AM 66.2 °F - 64.4 °F 94% 29.85 in 4.0 mi Calm Calm - 0.03 in Rain Light Rain
12:53 AM 66.9 °F - 64.9 °F 93% 29.84 in 4.0 mi Calm Calm - 0.03 in Rain Light Rain
1:04 AM 66.2 °F - 64.4 °F 94% 29.83 in 4.0 mi SSE 3.5 mph - 0.00 in Rain Light Rain
1:29 AM 66.2 °F - 64.4 °F 94% 29.83 in 2.5 mi Calm Calm - 0.01 in Rain Light Rain
1:38 AM 66.2 °F - 66.2 °F 100% 29.82 in 4.0 mi SSE 3.5 mph - 0.01 in Rain Light Rain
1:53 AM 66.9 °F - 66.0 °F 97% 29.81 in 3.0 mi Calm Calm - 0.01 in Rain Light Rain
2:02 AM 66.2 °F - 66.2 °F 100% 29.81 in 3.0 mi Calm Calm - 0.00 in Rain Light Rain
2:26 AM 66.2 °F - 66.2 °F 100% 29.80 in 3.0 mi Calm Calm - 0.00 in Rain Light Rain
2:53 AM 66.9 °F - 66.0 °F 97% 29.79 in 4.0 mi Calm Calm - 0.00 in Rain Light Rain
3:01 AM 66.2 °F - 66.2 °F 100% 29.79 in 3.0 mi Calm Calm - 0.00 in Rain Light Rain
3:09 AM 68.0 °F - 66.2 °F 94% 29.79 in 2.5 mi Calm Calm - 0.01 in Rain Light Rain
3:21 AM 68.0 °F - 66.2 °F 94% 29.79 in 2.5 mi Calm Calm - 0.03 in Rain Rain
3:31 AM 68.0 °F - 66.2 °F 94% 29.79 in 4.0 mi NNW 3.5 mph - 0.03 in Rain Light Rain
3:53 AM 68.0 °F - 66.0 °F 93% 29.79 in 8.0 mi NNW 8.1 mph - 0.03 in Rain Light Rain
4:17 AM 68.0 °F - 66.2 °F 94% 29.79 in 8.0 mi North 3.5 mph - 0.00 in   Overcast
4:32 AM 68.0 °F - 66.2 °F 94% 29.79 in 10.0 mi Calm Calm - 0.00 in   Overcast
4:53 AM 68.0 °F - 66.0 °F 93% 29.80 in 10.0 mi NNW 3.5 mph - 0.00 in   Overcast
5:12 AM 68.0 °F - 66.2 °F 94% 29.81 in 8.0 mi Calm Calm - N/A   Overcast
5:21 AM 68.0 °F - 66.2 °F 94% 29.81 in 8.0 mi Calm Calm - N/A   Overcast
5:53 AM 66.9 °F - 64.9 °F 93% 29.83 in 10.0 mi NW 6.9 mph - N/A   Overcast
6:05 AM 66.2 °F - 64.4 °F 94% 29.83 in 10.0 mi NNW 4.6 mph - N/A   Overcast
6:25 AM 66.2 °F - 64.4 °F 94% 29.83 in 9.0 mi NNW 3.5 mph - N/A   Overcast
6:45 AM 66.2 °F - 64.4 °F 94% 29.84 in 10.0 mi Calm Calm - N/A   Scattered Clouds
6:53 AM 66.9 °F - 64.9 °F 93% 29.84 in 10.0 mi NW 4.6 mph - N/A   Partly Cloudy
7:22 AM 68.0 °F - 64.4 °F 88% 29.85 in 10.0 mi NW 4.6 mph - N/A   Mostly Cloudy
7:45 AM 69.8 °F - 64.4 °F 83% 29.85 in 10.0 mi Variable 3.5 mph - N/A   Partly Cloudy
7:53 AM 69.1 °F - 64.9 °F 87% 29.85 in 10.0 mi NNW 4.6 mph - N/A   Partly Cloudy
8:53 AM 73.0 °F - 63.0 °F 71% 29.86 in 10.0 mi North 6.9 mph - N/A   Clear
9:53 AM 75.9 °F - 64.0 °F 67% 29.86 in 10.0 mi NNW 8.1 mph - N/A   Clear
10:53 AM 77.0 °F - 62.1 °F 60% 29.87 in 10.0 mi WNW 8.1 mph - N/A   Clear
11:53 AM 79.0 °F - 62.1 °F 56% 29.87 in 10.0 mi WNW 6.9 mph - N/A   Clear
12:53 PM 80.1 °F 80.7 °F 59.0 °F 48% 29.86 in 10.0 mi NW 6.9 mph 16.1 mph N/A   Clear
1:53 PM 81.0 °F 81.3 °F 59.0 °F 47% 29.85 in 10.0 mi West 8.1 mph - N/A   Scattered Clouds
2:53 PM 81.0 °F 81.3 °F 59.0 °F 47% 29.86 in 10.0 mi West 6.9 mph 16.1 mph N/A   Partly Cloudy
3:53 PM 82.0 °F 82.0 °F 57.9 °F 44% 29.85 in 10.0 mi West 5.8 mph - N/A   Partly Cloudy
4:53 PM 81.0 °F 81.0 °F 57.0 °F 44% 29.84 in 10.0 mi WSW 8.1 mph 20.7 mph N/A   Clear
5:53 PM 79.0 °F - 57.0 °F 47% 29.85 in 10.0 mi Variable 4.6 mph - N/A   Scattered Clouds
6:53 PM 77.0 °F - 59.0 °F 54% 29.85 in 10.0 mi Calm Calm - N/A   Mostly Cloudy
7:53 PM 73.0 °F - 64.0 °F 73% 29.86 in 10.0 mi Calm Calm - N/A   Clear
8:53 PM 69.1 °F - 64.0 °F 84% 29.88 in 10.0 mi Calm Calm - 0.00 in Rain Light Rain
9:53 PM 66.9 °F - 63.0 °F 87% 29.89 in 10.0 mi Calm Calm - 0.00 in   Clear
10:53 PM 66.0 °F - 62.1 °F 87% 29.89 in 10.0 mi Calm Calm - N/A   Partly Cloudy
11:53 PM 66.9 °F - 62.1 °F 84% 29.90 in 10.0 mi WSW 3.5 mph - N/A   Partly Cloudy